Total_Precipitation_Accumulation
1.42 1.36 1.44 1.70 1.80 1.89 2.14 2.25 2.11 2.02 1.97 1.86 1.71 1.56 1.47 1.38 1.37 1.37 1.79 2.33 2.92 3.62 4.17 4.19 3.80 3.26 3.00 3.07 2.94 2.78 2.62 2.80 3.37 3.54 3.47 3.45 3.34 3.37 3.17 2.79 2.54 2.49 2.48
1.42 1.40 1.34 1.49 1.80 1.94 2.02 2.02 1.93 1.96 1.96 1.89 1.76 1.70 1.64 1.43 1.52 1.51 1.61 1.71 2.00 2.52 3.37 4.00 3.90 3.45 3.17 3.06 2.88 2.74 2.58 2.58 3.20 3.49 3.52 3.47 3.39 3.40 2.98 2.66 2.60 2.51 2.55
1.37 1.34 1.26 1.38 1.65 1.90 1.98 1.98 1.90 1.97 1.88 1.73 1.77 1.76 1.72 1.60 1.64 1.67 1.65 1.63 1.56 1.84 2.52 3.33 3.61 3.54 3.45 3.39 3.10 2.91 2.81 2.84 2.98 3.28 3.45 3.50 3.41 3.29 2.91 2.62 2.46 2.54 2.65
1.33 1.45 1.41 1.36 1.57 1.85 2.11 2.28 2.15 2.08 2.01 1.89 1.91 1.86 1.73 1.76 1.72 1.71 1.67 1.68 1.69 1.58 1.79 2.20 2.71 3.24 3.49 3.65 3.42 3.22 2.91 2.64 2.60 2.90 3.21 3.44 3.51 3.28 3.15 2.88 2.62 2.62 2.82
1.29 1.51 1.64 1.56 1.64 1.89 2.03 2.11 2.16 2.04 2.02 1.96 1.80 1.77 1.69 1.75 1.80 1.63 1.62 1.63 1.71 1.69 1.63 1.48 1.71 2.25 2.85 3.55 3.75 3.41 3.15 2.80 2.53 2.61 2.86 3.16 3.40 3.31 3.17 2.97 2.73 2.58 2.65
1.51 1.63 1.76 1.78 1.82 1.97 2.00 2.18 2.43 2.27 2.06 2.00 1.81 1.71 1.66 1.68 1.71 1.69 1.73 1.73 1.74 1.71 1.68 1.52 1.47 1.46 1.90 2.63 3.31 3.29 3.31 3.14 2.74 2.60 2.71 2.82 3.04 3.19 2.96 2.89 2.89 2.70 2.61
1.80 1.90 1.99 2.06 2.03 1.97 2.06 2.27 2.70 2.66 2.33 2.08 2.07 1.96 1.82 1.75 1.78 1.72 1.82 1.89 1.79 1.75 1.79 1.72 1.59 1.45 1.38 1.57 2.19 2.86 3.16 3.35 3.12 2.85 2.78 2.84 2.87 3.08 2.97 2.82 3.02 3.01 2.86
1.91 1.97 2.17 2.29 2.25 2.26 2.34 2.40 2.70 2.93 2.68 2.47 2.49 2.70 2.47 2.25 1.88 1.57 1.60 1.67 1.72 1.76 1.75 1.76 1.68 1.55 1.52 1.45 1.39 1.93 2.47 2.91 3.17 3.04 2.88 2.87 2.91 3.05 3.15 3.08 3.09 3.28 3.21
2.13 2.08 2.15 2.32 2.35 2.36 2.44 2.62 2.92 3.30 3.32 2.99 2.73 2.96 2.76 2.47 2.34 1.82 1.49 1.50 1.62 1.74 1.76 1.83 1.79 1.66 1.60 1.65 1.46 1.35 1.58 2.08 2.81 3.14 3.16 3.12 3.09 3.13 3.20 3.25 3.46 3.43 3.38
2.07 2.09 2.14 2.28 2.45 2.60 2.74 2.76 2.72 3.20 3.59 3.41 3.14 2.74 2.46 2.33 2.47 2.34 1.85 1.52 1.54 1.58 1.65 1.66 1.77 1.86 1.80 1.73 1.59 1.22 1.14 1.45 2.31 3.17 3.49 3.38 3.19 3.14 3.34 3.52 3.57 3.31 3.22
2.19 2.12 2.10 2.12 2.14 2.26 2.43 2.56 2.62 2.90 3.19 3.41 3.38 3.12 2.80 2.60 2.14 2.15 2.23 1.99 1.70 1.45 1.42 1.55 1.74 1.83 1.84 1.73 1.73 1.36 1.12 1.07 1.48 2.35 3.16 3.46 3.40 3.37 3.58 3.70 3.48 3.27 3.16
2.17 2.05 1.98 2.03 2.02 2.01 2.14 2.27 2.41 2.70 2.92 3.09 3.18 3.08 3.00 2.92 2.60 2.29 2.10 2.06 1.92 1.66 1.48 1.48 1.55 1.63 1.71 1.67 1.55 1.55 1.31 1.05 1.07 1.37 1.97 2.73 3.10 3.27 3.44 3.61 3.57 3.32 3.35
1.75 1.72 1.64 1.65 1.76 1.82 1.98 2.06 2.02 2.11 2.34 2.58 2.77 2.83 2.87 2.77 2.70 2.62 2.45 2.19 1.92 1.59 1.56 1.47 1.44 1.55 1.56 1.67 1.65 1.78 1.43 1.19 1.08 1.08 1.30 1.69 2.10 2.52 3.03 3.32 3.55 3.59 3.64
1.40 1.37 1.36 1.36 1.42 1.47 1.65 1.87 1.90 1.92 2.01 2.13 2.20 2.50 2.70 2.66 2.69 2.48 2.37 2.39 2.12 1.77 1.57 1.37 1.26 1.31 1.38 1.50 1.78 1.90 1.40 1.29 1.14 1.15 1.24 1.27 1.46 1.68 2.14 2.67 2.97 3.24 3.45
1.13 1.13 1.17 1.26 1.32 1.30 1.38 1.51 1.70 1.77 1.84 1.93 1.94 2.13 2.33 2.42 2.42 2.26 2.28 2.38 2.30 1.98 1.72 1.52 1.41 1.32 1.31 1.36 1.67 1.57 1.42 1.37 1.26 1.24 1.23 1.20 1.23 1.31 1.53 1.82 2.09 2.27 2.46
1.01 1.02 1.01 1.08 1.16 1.19 1.28 1.39 1.41 1.51 1.60 1.78 1.96 2.08 2.14 2.19 2.26 2.18 2.18 2.29 2.29 2.12 1.85 1.59 1.41 1.33 1.37 1.30 1.51 1.43 1.52 1.59 1.30 1.17 1.13 1.14 1.12 1.09 1.09 1.19 1.35 1.52 1.62
0.87 0.88 0.91 1.01 1.05 1.07 1.12 1.13 1.15 1.22 1.28 1.40 1.47 1.62 1.86 2.06 2.15 2.16 2.22 2.29 2.31 2.17 1.90 1.72 1.45 1.40 1.50 1.42 1.44 1.43 1.54 1.57 1.33 1.20 1.06 1.02 1.03 1.00 1.03 1.00 1.03 1.12 1.21
0.83 0.84 0.92 0.97 0.97 1.04 1.07 1.04 1.06 1.13 1.24 1.31 1.33 1.36 1.47 1.75 1.92 2.05 2.16 2.20 2.25 2.20 2.01 1.96 1.84 1.58 1.49 1.45 1.54 1.65 1.61 1.60 1.52 1.49 1.33 1.11 1.04 1.02 1.00 0.99 0.96 0.93 0.94
0.98 1.02 1.02 1.06 1.00 1.02 1.03 1.03 1.08 1.14 1.15 1.20 1.22 1.22 1.33 1.45 1.62 1.74 1.88 2.01 2.07 2.18 2.16 1.96 1.99 1.89 1.64 1.58 1.58 1.67 1.74 1.86 1.73 1.66 1.68 1.49 1.28 1.19 1.12 1.04 0.97 0.94 0.91
0.89 0.91 0.98 1.06 1.14 1.17 1.13 1.10 1.15 1.18 1.13 1.13 1.16 1.22 1.26 1.29 1.49 1.72 1.83 1.95 2.01 2.13 2.26 2.16 2.06 1.98 1.81 1.73 1.69 1.71 1.88 1.98 1.97 1.72 1.60 1.53 1.47 1.36 1.26 1.17 1.06 1.03 1.02
0.80 0.78 0.86 0.95 1.06 1.15 1.19 1.18 1.08 1.02 1.04 1.10 1.08 1.06 1.13 1.26 1.40 1.61 1.71 1.95 1.99 2.15 2.25 2.27 2.13 1.93 1.78 1.73 1.69 1.67 1.84 2.04 2.09 1.97 1.80 1.58 1.48 1.33 1.24 1.22 1.19 1.17 1.14
0.86 0.80 0.79 0.77 0.81 0.86 1.08 1.09 0.97 0.85 0.91 1.05 1.12 1.08 1.06 1.14 1.23 1.33 1.38 1.63 1.83 1.99 2.12 2.11 2.09 1.93 1.77 1.68 1.78 1.82 1.84 1.91 2.03 1.96 1.77 1.80 1.71 1.53 1.38 1.25 1.33 1.38 1.38
0.87 0.86 0.77 0.69 0.69 0.76 0.85 0.84 0.90 0.86 0.88 0.95 1.04 1.10 1.14 1.10 1.19 1.27 1.30 1.42 1.53 1.60 1.75 1.87 1.88 1.79 1.77 1.70 1.78 1.83 1.84 1.79 1.69 1.75 1.71 1.79 1.80 1.63 1.44 1.36 1.41 1.35 1.34
0.79 0.85 0.78 0.73 0.76 0.77 0.81 0.83 0.88 0.85 0.95 1.03 1.03 1.02 1.16 1.20 1.23 1.40 1.38 1.47 1.42 1.38 1.42 1.49 1.64 1.68 1.65 1.75 1.83 1.99 2.07 1.94 1.79 1.79 1.76 1.71 1.63 1.54 1.38 1.37 1.42 1.28 1.23
0.74 0.69 0.72 0.87 0.87 0.89 0.99 0.91 0.83 0.85 0.96 1.03 0.99 1.02 1.14 1.21 1.41 1.53 1.53 1.52 1.42 1.36 1.45 1.56 1.68 1.77 1.78 1.85 1.93 2.00 2.04 2.03 1.95 1.88 1.74 1.62 1.50 1.50 1.44 1.35 1.33 1.36 1.29
0.74 0.75 0.77 0.90 0.94 0.97 1.03 0.91 0.88 0.92 1.01 1.09 1.06 1.05 1.27 1.24 1.36 1.43 1.47 1.58 1.56 1.44 1.42 1.44 1.48 1.55 1.54 1.63 1.89 1.91 2.03 2.13 1.97 1.89 1.73 1.63 1.58 1.70 1.78 1.52 1.30 1.27 1.26